Reading, PA

3:52 PM EDT on April 21, 2018 (GMT -0400)
Reading Regional-Spaatz

Weather History for KRDG - May, 2013

Change the Weather History Date:

Sunday, May 12, 2013

  Actual Average Record
Temperature  
Mean Temperature 54 °F 60 °F  
Max Temperature 62 °F 71 °F 90 °F (1985)
Min Temperature 46 °F 49 °F 31 °F (1907)
Degree Days  
Heating Degree Days 11 6  
Month to date heating degree days 63 90  
Since 1 July heating degree days 4908 5288  
Cooling Degree Days 0 1  
Month to date cooling degree days 5 12  
Year to date cooling degree days 20 21  
Growing Degree Days 4 (Base 50)    
Moisture  
Dew Point 37 °F    
Average Humidity 54    
Maximum Humidity 78    
Minimum Humidity 30    
Precipitation  
Precipitation 0.00 in 0.13 in 1.23 in (1948)
Month to date precipitation 2.29 1.46  
Year to date precipitation 11.87 14.24  
Sea Level Pressure  
Sea Level Pressure 29.83 in    
Wind  
Wind Speed 12 mph (WNW)    
Max Wind Speed 24 mph    
Max Gust Speed 35 mph    
Visibility 10 miles    
Events      
T = Trace of Precipitation, MM = Missing Value Source: NWS Daily Summary

Daily Weather History Graph

Daily Weather History Graph

Search for Another Location

Airport or City:

Astronomy

May. 12, 2013 Rise Set
Actual Time 5:50 AM EDT 8:10 PM EDT
Civil Twilight 5:19 AM EDT 8:41 PM EDT
Nautical Twilight 4:41 AM EDT 9:19 PM EDT
Astronomical Twilight 4:00 AM EDT 10:01 PM EDT
Moon 7:43 AM EDT (5/12) 10:36 PM EDT (5/12)
Length of Visible Light 15h 21m
Length of Day
14h 20m
Waxing Crescent, 6% of the Moon is Illuminated
May 12
Waxing Crescent
May 18
First Quarter
May 25
Full
May 31
Last Quarter
Jun 8
New

Hourly Weather History & Observations

Time (EDT) Temp. Dew Point Humidity Pressure Visibility Wind Dir Wind Speed Gust Speed Precip Events Conditions
12:54 AM 60.1 °F 53.1 °F 78% 29.75 in 10.0 mi West 3.5 mph - N/A   Overcast
1:54 AM 59.0 °F 52.0 °F 78% 29.74 in 10.0 mi WNW 5.8 mph - N/A   Mostly Cloudy
2:54 AM 59.0 °F 52.0 °F 78% 29.74 in 10.0 mi WNW 9.2 mph - N/A   Overcast
3:54 AM 57.9 °F 48.0 °F 70% 29.73 in 10.0 mi WNW 11.5 mph - N/A   Clear
4:54 AM 55.9 °F 45.0 °F 67% 29.75 in 10.0 mi WNW 10.4 mph - N/A   Clear
5:54 AM 53.1 °F 45.0 °F 74% 29.77 in 10.0 mi Calm Calm - N/A   Clear
6:54 AM 55.9 °F 46.9 °F 72% 29.77 in 10.0 mi Calm Calm - N/A   Clear
7:54 AM 57.0 °F 46.9 °F 69% 29.76 in 10.0 mi WNW 4.6 mph - N/A   Clear
8:54 AM 60.1 °F 46.9 °F 62% 29.78 in 10.0 mi West 11.5 mph 19.6 mph N/A   Clear
9:54 AM 61.0 °F 39.0 °F 44% 29.78 in 10.0 mi West 11.5 mph 20.7 mph N/A   Partly Cloudy
10:54 AM 60.1 °F 37.0 °F 42% 29.80 in 10.0 mi West 19.6 mph 26.5 mph N/A   Partly Cloudy
11:54 AM 60.1 °F 34.0 °F 38% 29.81 in 10.0 mi NW 15.0 mph 24.2 mph N/A   Clear
12:54 PM 60.1 °F 32.0 °F 35% 29.82 in 10.0 mi NW 19.6 mph 25.3 mph N/A   Clear
1:54 PM 60.1 °F 30.9 °F 33% 29.83 in 10.0 mi WNW 16.1 mph 27.6 mph N/A   Clear
2:54 PM 57.9 °F 30.9 °F 36% 29.84 in 10.0 mi West 16.1 mph 27.6 mph N/A   Scattered Clouds
3:54 PM 59.0 °F 30.0 °F 33% 29.84 in 10.0 mi WNW 23.0 mph 28.8 mph N/A   Mostly Cloudy
4:54 PM 61.0 °F 30.0 °F 31% 29.85 in 10.0 mi West 20.7 mph 27.6 mph N/A   Partly Cloudy
5:54 PM 57.9 °F 26.1 °F 30% 29.86 in 10.0 mi West 15.0 mph 26.5 mph N/A   Clear
6:54 PM 57.9 °F 26.1 °F 30% 29.87 in 10.0 mi West 19.6 mph 26.5 mph N/A   Partly Cloudy
7:54 PM 55.0 °F 26.1 °F 33% 29.90 in 10.0 mi WNW 11.5 mph - N/A   Clear
8:54 PM 50.0 °F 28.9 °F 44% 29.93 in 10.0 mi NW 6.9 mph - N/A   Clear
9:54 PM 50.0 °F 28.0 °F 43% 29.96 in 10.0 mi West 9.2 mph - N/A   Clear
10:54 PM 48.9 °F 28.0 °F 44% 29.99 in 10.0 mi West 8.1 mph - N/A   Clear
11:54 PM 46.9 °F 28.0 °F 48% 30.00 in 10.0 mi NW 9.2 mph - N/A   Clear